Regional Weather Roundup
Issued by NWS Binghamton, NY

Home | Current Version | Previous Version | Text Only | Print | Product List | Glossary On
Versions: 1 2 3 4 5 6 7 8 9 10 11 12 13 14 15 16 17 18 19 20 21 22 23 24 25 26 27 28 29 30 31 32 33 34 35 36 37 38 39 40 41 42 43 44 45 46 47 48 49 50
000
ASUS41 KBGM 011410
RWRBGM
RWRBGM
BINGHAMTON REGIONAL WEATHER ROUNDUP
NATIONAL WEATHER SERVICE BINGHAMTON NY
1000 AM EDT WED APR 01 2015

Note: "fair" indicates few or no clouds below 12,000 feet with no
significant weather and/or obstructions to visibility.

* = Station(s) that does not report precipitation, such as rain,
snow, etc, also no thunder or fog.

!NYZ009-015>018-022>025-036-037-044>046-055>057-062-011500
...CENTRAL NEW YORK...

CITY           SKY/WX    TMP DP  RH WIND       PRES   REMARKS
BINGHAMTON     PTSUNNY   29  23  78 NW7       30.02R WCI  22
CORTLAND       FAIR      30  27  86 CALM      30.08R
DANSVILLE      MOSUNNY   32  23  69 NW5       30.14R WCI  27
ELMIRA         SUNNY     36  25  64 N10       30.09R WCI  28
ITHACA         CLOUDY    29  25  85 NW6       30.09R WCI  23
MONTICELLO     MOSUNNY   28  19  69 W6        30.02R WCI  22
NORWICH        SUNNY     30  12  47 CALM      30.07R
ONEONTA        SUNNY     28   1  31 N3        30.00R
PENN YAN       MOSUNNY   34  18  52 N7        30.11R WCI  28
ROME           MIX PCPN  30  11  45 NW7       30.10R WCI  23
SIDNEY         SUNNY     34  16  47 S3        30.05R
SYRACUSE       PTSUNNY   33  12  41 NW10      30.11R WCI  25
$$

!PAZ038>040-043-044-047-048-072-011500
...NORTHEAST PENNSYLVANIA...

CITY           SKY/WX    TMP DP  RH WIND       PRES   REMARKS
HAZLETON       SUNNY     32  28  86 W6        30.06R WCI  26
SCRANTON       SUNNY     33  27  78 CALM      30.07R
TOWANDA*       MOSUNNY   36  27  69 MISG      30.10R
$$
&&
KEY
WCI = WIND CHILL INDEX
VSB = VISIBILITY
HX  = HEAT INDEX
$$



USA.gov is the U.S. government's official web portal to all federal, state and local government web resources and services.